Location: Monteux
(44.0348°N, 4.9972°E)
Time: 14:42:15
(UTC+00:00)

CSL-04 Rocket - Pass Details

Date: 30 November 2020
Orbit: 807 x 859 km, 98.9° (Epoch: 27 January)

Event Time Altitude Azimuth Distance (km) Brightness Sun altitude
Exits shadow 18:01:06 33° 39° (NE) 1,359 4.4 -20.6°
Drops below altitude 10° 18:04:45 10° 2° (N) 2,407 5.9 -21.2°
Sets 18:07:14 0° 354° (N) 3,339 6.8 -21.7°
